Weather Service Report


115 
ASUS44 KLIX 281012
RWRLIX
NEW ORLEANS REGIONAL WEATHER ROUNDUP
NATIONAL WEATHER SERVICE NEW ORLEANS LA
500 AM CDT TUE JUL 28 2015

NOTE: "FAIR" INDICATES FEW OR NO CLOUDS BELOW 12,000 FEET WITH NO
      SIGNIFICANT WEATHER AND/OR OBSTRUCTIONS TO VISIBILITY.
      SKY/WX - SKY CONDITION AND SIGNIFICANT WEATHER.
      TMP - AIR TEMPERATURE.     DP    - DEWPOINT TEMPERATURE.
      RH  - RELATIVE HUMIDITY.   PRES  - PRESSURE.
      HI  - HEAT INDEX.          WCI   - WIND CHILL INDEX.

*  THESE STATIONS ARE NOT NWS OR FAA STATIONS AND ARE NOT UNDER
   NWS QUALITY CONTROL. 

LAZ038-040-048-061>063-065>067-069-281100-
SOUTHEAST LOUISIANA
  
CITY           SKY/WX    TMP DP  RH WIND       PRES   REMARKS
N.O. AUDUBON     N/A     79  79  99 MISG        N/A                   
N.O. INTL ARPT PTCLDY    79  74  84 NW3       29.96S                  
N.O. LAKEFRONT CLEAR     87  75  67 W8        29.96S HX  96           
N.O. DOWNTOWN*   N/A     82  75  78 CALM      29.97S                  
RESERVE*         N/A     77  74  91 CALM      29.96S                  
SLIDELL        CLEAR     74  73  97 CALM      29.96R                  
BATON ROUGE    CLEAR     75  73  93 NE3       29.97R                  
BOOTHVILLE     CLEAR     81  76  84 CALM      29.96R                  
BELLE CHASSE   CLEAR     75  73  93 CALM      29.96R                  
BOGALUSA*        N/A     75  72  88 CALM      29.98S                  
GALLIANO*      NOT AVBL                                               
NEW ROADS*       N/A    N/A N/A N/A CALM      29.97R HAZE             
GONZALES*        N/A     75  75 100 CALM      29.95S                  
HAMMOND*       CLEAR     75  72  88 CALM      29.98S                  
HOUMA*         CLEAR     75  74  98 CALM      29.96S                  
PORT FOURCHON* SUNNY     84  75  74 CALM      29.96S                  

$$

MSZ070-080>082-281100-
SOUTHERN MISSISSIPPI
  
CITY           SKY/WX    TMP DP  RH WIND       PRES   REMARKS
MCCOMB         CLEAR     77  74  90 W3        29.98S                  
GULFPORT       CLEAR     76  73  91 NW3       29.95S                  
BILOXI         CLEAR     79  75  86 VRB1      29.95S                  
PASCAGOULA     CLEAR     75  74  96 N3        29.96R                  

$$

COASTAL OBSERVATIONS
LAKE AND NEARSHORE STATIONS
  
STATION/POSITION TIME  TEMP    WIND        PRES    WAVE
                       AIR SEA DIR/SP/G            HT/PER
                 (UTC) (F)     (DEG/KT/KT) (MB)    (FT/S)
PASCAGOULA       0900   81     320/  6/  8 1013.7
WAVELAND YACHT   0900   80 88  310/  6/  7 1014.6
GRAND ISLE       0900   84 90   CALM  /  2 1014.5
SOUTHWEST PASS   0900   84 86  250/  5/  6 1014.6
NEW CANAL        0900   83 89  240/  3/  4 1013.7
SHELL BEACH      0900   82 89  280/  7/  8 1013.8

OFFSHORE STATIONS
  
STATION/POSITION TIME  TEMP    WIND        PRES    WAVE
                       AIR SEA DIR/SP/G            HT/PER
                 (UTC) (F)     (DEG/KT/KT) (MB)    (FT/S)
64 S DAUPHIN ISL 0950   85 87  320/  6/  8 1014.3    1

$$


Return to Home page


Western Regional Climate Center, wrcc@dri.edu